This demonstration page uses our WeatherBlox Daily Observations layout. Learn more.

36.17497, -115.13722

Hourly Observations for February 28, 2016

Temp ( °F °C ) Dew Point ( °F °C ) Humidity (%) Winds ( mph kmh ) Pressure ( in mb ) Visibility ( mi km ) Precip ( " mm )
12:53 am 00:53 Clear 60 15.6 15 -9.4 17 17 WNW 7 11 30 1016 10 16.0934 0 0
1:53 am 01:53 Clear 57 13.9 16 -8.9 20 20 NW 7 11 29.99 1016 10 16.0934 0 0
2:53 am 02:53 Clear 57 13.9 16 -8.9 20 20 N 8 13 29.99 1016 10 16.0934 0 0
3:53 am 03:53 Clear 60 15.6 18 -7.8 19 19 N 16 26 30.01 1016 10 16.0934 0 0
4:53 am 04:53 Clear 59 15 19 -7.2 21 21 NNW 13 20 30.03 1017 10 16.0934 0 0
5:53 am 05:53 Clear 58 14.4 19 -7.2 22 22 NNW 13 20 30.06 1018 10 16.0934 0 0
6:53 am 06:53 Sunny 58 14.4 20 -6.7 23 23 WNW 8 13 30.09 1019 10 16.0934 0 0
7:53 am 07:53 Sunny 61 16.1 21 -6.1 21 21 Calm 30.11 1020 10 16.0934 0 0
8:53 am 08:53 Sunny 65 18.3 21 -6.1 19 19 WNW 7 11 30.12 1020 10 16.0934 0 0
9:53 am 09:53 Sunny 69 20.6 21 -6.1 16 16 Calm 30.11 1020 10 16.0934 0 0
10:53 am 10:53 Sunny 71 21.7 21 -6.1 15 15 ESE 6 9 30.11 1020 10 16.0934 0 0
11:53 am 11:53 Sunny 72 22.2 21 -6.1 15 15 S 7 11 30.09 1019 10 16.0934 0 0
12:53 pm 12:53 Sunny 75 23.9 23 -5 14 14 E 5 7 30.06 1018 10 16.0934 0 0
1:53 pm 13:53 Sunny 76 24.4 23 -5 14 14 E 3 6 30.04 1017 10 16.0934 0 0
2:53 pm 14:53 Sunny 76 24.4 24 -4.4 14 14 SSE 6 9 30.04 1017 10 16.0934 0 0
3:53 pm 15:53 Sunny 76 24.4 24 -4.4 14 14 SE 7 11 30.03 1017 10 16.0934 0 0
4:53 pm 16:53 Sunny 75 23.9 24 -4.4 15 15 ESE 3 6 30.03 1017 10 16.0934 0 0
5:53 pm 17:53 Clear 73 22.8 24 -4.4 16 16 ESE 3 6 30.03 1017 10 16.0934 0 0
6:53 pm 18:53 Clear 70 21.1 24 -4.4 18 18 Calm 30.04 1017 10 16.0934 0 0
7:53 pm 19:53 Clear 66 18.9 28 -2.2 24 24 WNW 5 7 30.04 1017 10 16.0934 0 0
8:53 pm 20:53 Clear 64 17.8 27 -2.8 25 25 WNW 6 9 30.05 1018 10 16.0934 0 0
9:53 pm 21:53 Clear 61 16.1 28 -2.2 29 29 N 5 7 30.06 1018 10 16.0934 0 0
10:53 pm 22:53 Clear 59 15 28 -2.2 31 31 N 5 7 30.06 1018 10 16.0934 0 0
11:53 pm 23:53 Clear 58 14.4 28 -2.2 32 32 NNW 5 7 30.05 1018 10 16.0934 0 0

Powered by AerisWeather